Location: Montclair
(37.8322°N, 122.2092°W)
Time: 00:23:50
(UTC+00:00)

Cosmos 1867 - Pass Details

Date: 06 December 2024
Orbit: 773 x 801 km, 65.0° (Epoch: 19 January)

Event Time Altitude Azimuth Distance (km) Brightness Sun altitude
Rises 13:19:46 0° 178° (S) 3,264 6.9 -21.3°
Reaches altitude 10° 13:22:29 10° 166° (SSE) 2,344 6.3 -20.8°
Maximum altitude 13:26:57 27° 110° (ESE) 1,493 5.8 -19.9°
Drops below altitude 10° 13:31:26 10° 54° (NE) 2,370 6.6 -19.1°
Sets 13:34:12 0° 43° (NE) 3,308 7.2 -18.5°
